Regional Weather Roundup
Issued by NWS

Home | Current Version | Previous Version | Text Only | Print | Product List | Glossary On
Versions: 1 2 3 4 5 6 7 8 9 10 11 12 13 14 15 16 17 18 19 20 21 22 23 24 25 26 27 28 29 30 31 32 33 34 35 36 37 38 39 40 41 42 43 44 45 46 47 48 49 50
000
ASHW40 PHFO 252330
RWRHI

WEATHER ROUNDUP FOR HAWAII
NATIONAL WEATHER SERVICE HONOLULU HI
100 PM HST TUE NOV 25 2014

THIS IS AN AUTOMATED REPORT THAT HAS NOT BEEN QUALITY CONTROLLED.

NOTE..."FAIR" INDICATES FEW OR NO CLOUDS BELOW 12,000 FEET WITH NO
SIGNIFICANT WEATHER AND/OR OBSTRUCTIONS TO VISIBILITY.

* - THESE SITES REPORT LIMITED FIELDS

HIZ001>004-260000-
KAUAI-NIIHAU-

CITY           SKY/WX    TMP DP  RH WIND       PRES   REMARKS
LIHUE APT      MOSUNNY   79  58  48 N18       30.03F
PORT ALLEN*      N/A     79 N/A N/A NE7G14      N/A
POIPU*           N/A     81 N/A N/A N7G16       N/A
PRINCEVILLE*     N/A     75 N/A N/A MISG        N/A
KOKOLE POINT*  NOT AVBL
MOLOAA DAIRY*  NOT AVBL
WAIMEA HTS*    NOT AVBL
PUU OPAE*      NOT AVBL
PUU LUA*       NOT AVBL
MAKAHA RIDGE*  NOT AVBL
$$

HIZ005>011-260000-
OAHU-

CITY           SKY/WX    TMP DP  RH WIND       PRES   REMARKS
HONOLULU       MOSUNNY   81  59  47 NE14G22   29.98F
KALAELOA       MOSUNNY   80  58  46 NE8       30.00F
KANEOHE MCB    CLOUDY    78  59  51 NE7       30.01F
WHEELER FIELD  FAIR      75  61  61 N14       30.01F
BELLOWS*         N/A    N/A N/A N/A N9          N/A
KAHUKU*          N/A    N/A N/A N/A NE5G10      N/A
WHEELER*       NOT AVBL
WAIANAE HARBOR NOT AVBL
DILLINGHAM*      N/A     68  54  60 NE5G14      N/A
KAHUKU TRN*      N/A     68  55  64 NE8G16      N/A
KAWAILOA*        N/A     72  61  68 NE13G22     N/A
KII*             N/A    N/A N/A N/A NE12G17     N/A
MAKUA RANGE*     N/A     79  61  53 E16G25      N/A
OAHU FOREST NW NOT AVBL
SCHOFIELD BRK*   N/A     63  50  63 MISG        N/A
SCHOFIELD S*   NOT AVBL
WAIANAE VLY*   NOT AVBL
KUAOKALA*      NOT AVBL
HONOULIUULI*   NOT AVBL
MOKUOLOE IS*     N/A    N/A N/A N/A MISG        N/A
PALEHUA*       NOT AVBL
WAIAWA PHB*    NOT AVBL
$$

HIZ012>013-260000-
MOLOKAI-

CITY           SKY/WX    TMP DP  RH WIND       PRES   REMARKS
MOLOKAI AIRPT  MOSUNNY   77  60  55 NE15G24   30.00F
KALAUPAPA      NOT AVBL
MAKAPULAPAI*   NOT AVBL
MOLOKAI 1*     NOT AVBL
PUU ALII*        N/A     57  56  98 E2          N/A
$$

HIZ016-260000-
KAHOOLAWE-

CITY           SKY/WX    TMP DP  RH WIND       PRES   REMARKS
KAHOOLAWE*     NOT AVBL
HAKIOAWA*      NOT AVBL
HONOKANAIA*      N/A     80  60  50 VRB18G33  29.98F
KANELOA*         N/A     75  63  64 NE21G35   29.22F
KEALIALALO*    NOT AVBL
LUA MAKIKA*    NOT AVBL
$$

HIZ014>015-260000-
LANAI-

CITY           SKY/WX    TMP DP  RH WIND       PRES   REMARKS
LANAI CITY     FAIR      78  60  53 NE25G32   30.02F
LANAI 1*       NOT AVBL
$$

HIZ017>028-260000-
MAUI-

CITY           SKY/WX    TMP DP  RH WIND       PRES   REMARKS
KAHULUI        MOSUNNY   80  59  48 NE14      30.01F
KAPALUA-W MAUI MOSUNNY   79  61  53 NE17G26   30.00
HANA AIRPORT   CLOUDY    73  63  68 W3        30.03F
HANA*            N/A     73 N/A N/A W5          N/A
HALEAKALA SUMM   N/A     52  16  24 SW16G28     N/A
MAALAEA BAY*   NOT AVBL
HALEAKALA*     NOT AVBL
KAUPO GAP*     NOT AVBL
KULA 1*          N/A     63  54  73 W5G12       N/A
$$

HIZ023>026-260000-
BIG ISLAND OF HAWAII COAST AND LOWER SLOPES-

CITY           SKY/WX    TMP DP  RH WIND       PRES   REMARKS
KAILUA KONA    MOSUNNY   85  67  54 NW18      29.91F
HILO           LGT RAIN  75  68  78 N10       29.99F
HONOKAA*       NOT AVBL
KAWAIHAE MWT*    N/A     82 N/A N/A W6          N/A
KAWAIHAE*        N/A     82 N/A N/A W3          N/A
SOUTH POINT*     N/A     77 N/A N/A NE15G22     N/A
UPOLU AIRPORT*   N/A    N/A N/A N/A E17G25      N/A
KAMUELA*       MOCLDY    68  63  83 N17       30.05F HAZE
HAKALAU*         N/A     57  55  94 NE5         N/A
KALOKO-HONOKO*   N/A     86  66  51 W9G24       N/A
PALI 2*          N/A     75  61  60 NE16G26     N/A
KEALAKOMO*       N/A     84  64  51 NE20G32     N/A
KAUPULEHU*     NOT AVBL
KAPAPALA*      NOT AVBL
LOWER KAHUKU*    N/A     70  64  83 SE2         N/A
PUHE CS*       NOT AVBL
PUHO CS*         N/A     83  66  55 W3G9        N/A
PTA KEAMUKU*     N/A     70  59  68 CALM        N/A
WAIKOLOA*      NOT AVBL
$$

HIZ027>028-260000-
BIG ISLAND OF HAWAII INTERIOR AND SUMMMITS-

CITY           SKY/WX    TMP DP  RH WIND       PRES   REMARKS
BRADSHAW FIELD MOSUNNY   70  43  38 W8G14     30.27F
MK VISITOR CEN NOT AVBL
MAUNA KEA*       N/A     46  -4  12 NW3         N/A
MAUNA LOA*       N/A     54  39  58 MISG        N/A
MAUNA LOA 1*   NOT AVBL
PTA KIPUKA*      N/A     73  46  38 W7G13       N/A
PTA RANGE 17*    N/A     72  48  43 W5G16       N/A
PTA WEST*        N/A     73  55  53 W8G15       N/A
NENE CABIN*      N/A    N/A N/A N/A S5G12       N/A
AHUMOA*        NOT AVBL
PTA PORTABLE*  NOT AVBL
PUU MALI*      NOT AVBL
$$

HIC003-260000-
NORTHWEST ISLANDS-

CITY           SKY/WX    TMP DP  RH WIND       PRES   REMARKS
MIDWAY ISLAND  PTSUNNY   79  66  65 W3        30.11F
MIDWAY NOS*    NOT AVBL
FRENCH FRIGATE NOT AVBL
$$

PHZ110>124-180-260000-
BUOY REPORTS

STATION/POSITION TIME  TEMP    WIND        PRES    WAVE   SWELL
                       AIR SEA DIR/SP/G            HT/PER HT/DIR
                 (UTC) (F)     (DEG/KT/KT) (MB)    (FT/S) (FT/D)
BUOY 51001       NOT AVBL
BUOY 51101       2300   72 78   40/ 10/ 12 1018.9F  10/13  10/310
BUOY 51100       2300   72 78   20/ 12/ 16 1016.3F
BUOY 51003       2300   78 81   40/ 17/ 19 1014.3F  10/10   8
BUOY 51004       2154   79 80   60/ 12/ 14 1012.8    7/ 9   7/ 90
BARBERS PT BUOY  NOT AVBL
WAIMEA BAY BUOY  2300      79                N/A    10/13   7/320
KAILUA BAY BUOY  2300      79                N/A     7/11   3/ 10
LANAI BUOY       2300      79                N/A     4/12   3/290
BARBERS PT 2     2300      78                N/A     7/13   5/320
PAUWELA MAUI     2300      79                N/A    10/10
HILO             2300      80                N/A     8/11   5/ 60
KANEOHE BAY BUOY 2300      78                N/A     7/11   5/350
HANALEI KAUAI    NOT AVBL
KAHULUI HARBOR   2300   75 78   40/  8/ 12 1015.9F
HONOLULU HARBOR  2300   77      50/  7/ 15 1015.5F
KILO NALU        NOT AVBL
HILO HARBOR      2300   73      10/ 11/ 13 1015.3F
MOKUOLOE         2300      76              1016.5F
NAWILIWILI       2300      81                N/A
WHOTS BUOY       NOT AVBL
BUOY 51028       NOT AVBL
$$

......................KEY........................................
  SKY/WX - SKY CONDITIONS/PRESENT WEATHER
  TMP    - TEMPERATURE IN FAHRENHEIT
  DWPT   - DEWPOINT IN FAHRENHEIT
  RH     - RELATIVE HUMIDITY IN PERCENT
  WIND   - DIRECTION AND SPEED /MPH FOR ISLANDS...KTS FOR BUOYS/
  PRES   - MEAN SEA LEVEL PRESSURE IN INCHES OF HG
  VSB    - VISIBILITY IN MILES
  HX     - HEAT INDEX
  WCI    - WIND CHILL INDEX
  VRB    - VARIABLE WIND DIRECTION
  N/A    - NOT AVAILABLE



USA.gov is the U.S. government's official web portal to all federal, state and local government web resources and services.